Location: Kellogg
(38.0159°N, 90.0546°W)
Time: 14:03:06
(UTC+00:00)

ARIANE 6 FM1 Upper Stage - Pass Details

Date: 24 January 2026
Orbit: 522 x 609 km, 62.0° (Epoch: 8 February)

Event Time Altitude Azimuth Distance (km) Brightness Sun altitude
Rises 23:53:23 0° 215° (SW) 2,726 7.1 -8.0°
Reaches altitude 10° 23:55:37 10° 216° (SW) 1,820 6.2 -8.4°
Maximum altitude 23:59:43 84° 304° (WNW) 548 2.6 -9.2°
Drops below altitude 10° 00:03:44 10° 33° (NNE) 1,787 4.8 -9.9°
Enters shadow 00:04:15 - 34° (NNE) 1,999 5.0 -10.0°
